THOR ABLESTAR DEB, 262

Orbit data source: Space-Track

THOR ABLESTAR DEB, 262 is space debris in LEO originally from a launch on Thu, 29 Jun 1961 UTC launched from the Air Force Eastern Test Range (AFETR). Debris objects in space refer to the collection of defunct objects orbiting the Earth. Examples of debris include non-operational satellites, rocket bodies, and fragments generated from explosions, collisions, or faulty payload assembly.

Loading next visibility...
Identifier
262, 1961-015CJ
Orbit
LEO
Country
Flag of USUS
Related business
Manufacturer
Unknown
Mission
Spacecraft
Bus & Motor
Unknown
Mass
Unknown
Launch date (UTC)
1961-06-29 (65 years ago)
Launch vehicle
Unknown
Launch site
Air Force Eastern Test Range (AFETR)
Object type
Payload
Rocket body
Debris
Shape & HBR
Unknown shape, 0.2 m
Radar Cross Section
Medium (>0.1 m² and <1 m²)

Expand to show TLE details & history
Last TLE update: 12 hours ago

TLE from 12 hours ago
0 THOR ABLESTAR DEB
1 00262U 61015CJ  26178.01480343  .00002360  00000-0  50064-3 0  9999
2 00262  66.4628  37.8612 0049661  79.0636 281.6058 14.60293411359950
Epoch: 2026-06-27T00:21Z
TLE epoch observation values (Epoch: 2026-06-27T00:21:19.016Z)
Latitude
0.00005°
Longitude
117.39696°
Altitude
687.448 km
Speed
7.517 km/s
True Right ascension
02h 31m 26s
True Declination
0° 00' 00"
Sunlit
Object was in daylight at epoch
Visualization orbit readout
Latitude
Unknown
Longitude
Unknown
Altitude
Unknown
Speed
Unknown
Apparent Right ascension
Unknown
Apparent Declination
Unknown
Sunlit
N/A
Visualization observer readout
Local Sidereal Time
23:25:51
Azimuth
Unknown
Elevation
Unknown
Doppler factor
Unknown
Orbital elements
Apogee altitude
725.711 km
Perigee altitude
655.503 km
Semi-major axis
7,068.744 km
Eccentricity
0.00497
Inclination
66.4628°
RAAN
37.8612°
Arg. of periapsis
79.0636°
True anomaly
281.04767°
Mean anomaly
281.6058°
Eccentric anomaly
281.32681°
Mean motion
3.65199 °/min
Orbital period
98.58 mins
BSTAR
0.00050064
Loading maneuver chart data...
Computing Atmospheric mass density...

Documentation

Showing up to 5 results
|